Time,TemperatureF,DewpointF,PressureIn,WindDirection,WindDirectionDegrees,WindSpeedMPH,WindSpeedGustMPH,Humidity,HourlyPrecipIn,Conditions,Clouds,dailyrainin,SolarRadiationWatts/m^2,SoftwareType,DateUTC
2013-01-02 00:12:00,71.0,67.0,30.08,North,3,7.0,27.0,86,0.00,,,0.01,0.000000,,2013-01-02 10:12:00,
2013-01-02 00:22:00,71.0,67.0,30.08,North,3,7.0,27.0,86,0.00,,,0.01,0.000000,,2013-01-02 10:22:00,
2013-01-02 00:32:00,71.0,67.0,30.08,North,3,7.0,27.0,86,0.00,,,0.01,0.000000,,2013-01-02 10:32:00,
2013-01-02 00:42:00,71.0,67.0,30.08,North,3,7.0,27.0,86,0.00,,,0.01,0.000000,,2013-01-02 10:42:00,
2013-01-02 00:52:00,71.0,67.0,30.08,North,3,7.0,27.0,86,0.00,,,0.01,0.000000,,2013-01-02 10:52:00,
2013-01-02 01:12:00,70.0,66.0,30.06,NNE,23,11.0,20.0,87,0.01,,,0.02,0.000000,,2013-01-02 11:12:00,
2013-01-02 01:22:00,70.0,66.0,30.06,NNE,23,11.0,20.0,87,0.01,,,0.02,0.000000,,2013-01-02 11:22:00,
2013-01-02 01:32:00,70.0,66.0,30.06,NNE,23,11.0,20.0,87,0.01,,,0.02,0.000000,,2013-01-02 11:32:00,
2013-01-02 01:42:00,70.0,66.0,30.06,NNE,23,11.0,20.0,87,0.01,,,0.02,0.000000,,2013-01-02 11:42:00,
2013-01-02 01:52:00,70.0,66.0,30.06,NNE,23,11.0,20.0,87,0.01,,,0.02,0.000000,,2013-01-02 11:52:00,
2013-01-02 02:22:00,71.0,67.0,30.06,North,353,11.0,18.0,86,0.03,,,0.05,0.000000,,2013-01-02 12:22:00,
2013-01-02 02:32:00,71.0,67.0,30.06,North,353,11.0,18.0,86,0.03,,,0.05,0.000000,,2013-01-02 12:32:00,
2013-01-02 02:42:00,71.0,67.0,30.06,North,353,11.0,18.0,86,0.03,,,0.05,0.000000,,2013-01-02 12:42:00,
2013-01-02 02:52:00,71.0,67.0,30.06,North,353,11.0,18.0,86,0.03,,,0.05,0.000000,,2013-01-02 12:52:00,
2013-01-02 03:12:00,70.0,65.0,30.04,NE,53,12.0,24.0,84,0.00,,,0.05,0.000000,,2013-01-02 13:12:00,
2013-01-02 03:22:00,70.0,65.0,30.04,NE,53,12.0,24.0,84,0.00,,,0.05,0.000000,,2013-01-02 13:22:00,
2013-01-02 03:32:00,70.0,65.0,30.04,NE,53,12.0,24.0,84,0.00,,,0.05,0.000000,,2013-01-02 13:32:00,
2013-01-02 03:42:00,70.0,65.0,30.04,NE,53,12.0,24.0,84,0.00,,,0.05,0.000000,,2013-01-02 13:42:00,
2013-01-02 03:52:00,70.0,65.0,30.04,NE,53,12.0,24.0,84,0.00,,,0.05,0.000000,,2013-01-02 13:52:00,
2013-01-02 03:53:00,71.0,67.0,30.02,North,5,15.0,24.0,87,0.03,,,0.08,0.000000,,2013-01-02 13:53:00,
2013-01-02 04:12:00,71.0,67.0,30.02,North,5,15.0,24.0,87,0.03,,,0.08,0.000000,,2013-01-02 14:12:00,
2013-01-02 04:22:00,71.0,67.0,30.02,North,5,15.0,24.0,87,0.03,,,0.08,0.000000,,2013-01-02 14:22:00,
2013-01-02 04:32:00,71.0,67.0,30.02,North,5,15.0,24.0,87,0.03,,,0.08,0.000000,,2013-01-02 14:32:00,
2013-01-02 04:42:00,71.0,67.0,30.02,North,5,15.0,24.0,87,0.03,,,0.08,0.000000,,2013-01-02 14:42:00,
2013-01-02 05:12:00,70.0,65.0,30.03,ENE,71,9.0,21.0,84,0.00,,,0.08,0.000000,,2013-01-02 15:12:00,
2013-01-02 05:22:00,70.0,65.0,30.03,ENE,71,9.0,21.0,84,0.00,,,0.08,0.000000,,2013-01-02 15:22:00,
2013-01-02 05:33:00,70.0,65.0,30.03,ENE,71,9.0,21.0,84,0.00,,,0.08,0.000000,,2013-01-02 15:33:00,
2013-01-02 05:42:00,70.0,65.0,30.03,ENE,71,9.0,21.0,84,0.00,,,0.08,0.000000,,2013-01-02 15:42:00,
2013-01-02 05:52:00,70.0,65.0,30.03,ENE,71,9.0,21.0,84,0.00,,,0.08,0.000000,,2013-01-02 15:52:00,
2013-01-02 05:53:00,72.0,65.0,30.03,NE,48,10.0,26.0,80,0.00,,,0.08,0.000000,,2013-01-02 15:53:00,
2013-01-02 06:12:00,72.0,65.0,30.03,NE,48,10.0,26.0,80,0.00,,,0.08,0.000000,,2013-01-02 16:12:00,
2013-01-02 06:22:00,72.0,65.0,30.03,NE,48,10.0,26.0,80,0.00,,,0.08,0.000000,,2013-01-02 16:22:00,
2013-01-02 06:33:00,72.0,65.0,30.03,NE,48,10.0,26.0,80,0.00,,,0.08,0.000000,,2013-01-02 16:33:00,
2013-01-02 06:42:00,72.0,65.0,30.03,NE,48,10.0,26.0,80,0.00,,,0.08,0.000000,,2013-01-02 16:42:00,
2013-01-02 06:53:00,71.0,65.0,30.04,NE,54,14.0,26.0,80,0.00,,,-99.99,0.000000,,2013-01-02 16:53:00,
2013-01-02 07:12:00,71.0,65.0,30.04,NE,54,14.0,26.0,80,0.00,,,-99.99,0.000000,,2013-01-02 17:12:00,
2013-01-02 07:22:00,71.0,65.0,30.04,NE,54,14.0,26.0,80,0.00,,,-99.99,0.000000,,2013-01-02 17:22:00,
2013-01-02 07:33:00,71.0,65.0,30.04,NE,54,14.0,26.0,80,0.00,,,-99.99,0.000000,,2013-01-02 17:33:00,
2013-01-02 07:42:00,71.0,65.0,30.04,NE,54,14.0,26.0,80,0.00,,,-99.99,0.000000,,2013-01-02 17:42:00,
2013-01-02 08:12:00,72.0,64.0,30.03,ENE,65,16.0,30.0,75,0.00,,,0.08,24.000000,,2013-01-02 18:12:00,
2013-01-02 08:22:00,72.0,64.0,30.03,ENE,65,16.0,30.0,75,0.00,,,0.08,24.000000,,2013-01-02 18:22:00,
2013-01-02 08:33:00,72.0,64.0,30.03,ENE,65,16.0,30.0,75,0.00,,,0.08,24.000000,,2013-01-02 18:33:00,
2013-01-02 08:42:00,72.0,64.0,30.03,ENE,65,16.0,30.0,75,0.00,,,0.08,24.000000,,2013-01-02 18:42:00,
2013-01-02 08:52:00,72.0,64.0,30.03,ENE,65,16.0,30.0,75,0.00,,,0.08,24.000000,,2013-01-02 18:52:00,
2013-01-02 09:12:00,74.0,65.0,30.06,ENE,67,14.0,30.0,73,0.00,,,0.08,212.000000,,2013-01-02 19:12:00,
2013-01-02 09:22:00,74.0,65.0,30.06,ENE,67,14.0,30.0,73,0.00,,,0.08,212.000000,,2013-01-02 19:22:00,
2013-01-02 09:32:00,74.0,65.0,30.06,ENE,67,14.0,30.0,73,0.00,,,0.08,212.000000,,2013-01-02 19:32:00,
2013-01-02 09:42:00,74.0,65.0,30.06,ENE,67,14.0,30.0,73,0.00,,,0.08,212.000000,,2013-01-02 19:42:00,
2013-01-02 09:52:00,74.0,65.0,30.06,ENE,67,14.0,30.0,73,0.00,,,0.08,212.000000,,2013-01-02 19:52:00,
2013-01-02 09:53:00,78.0,67.0,30.06,NE,54,18.0,29.0,68,0.00,,,0.08,444.000000,,2013-01-02 19:53:00,
2013-01-02 10:12:00,78.0,67.0,30.06,NE,54,18.0,29.0,68,0.00,,,0.08,444.000000,,2013-01-02 20:12:00,
2013-01-02 10:22:00,78.0,67.0,30.06,NE,54,18.0,29.0,68,0.00,,,0.08,444.000000,,2013-01-02 20:22:00,
2013-01-02 10:33:00,78.0,67.0,30.06,NE,54,18.0,29.0,68,0.00,,,0.08,444.000000,,2013-01-02 20:33:00,
2013-01-02 10:42:00,78.0,67.0,30.06,NE,54,18.0,29.0,68,0.00,,,0.08,444.000000,,2013-01-02 20:42:00,
2013-01-02 11:12:00,78.0,66.0,30.06,ENE,57,15.0,29.0,66,0.00,,,-99.99,495.000000,,2013-01-02 21:12:00,
2013-01-02 11:22:00,78.0,66.0,30.06,ENE,57,15.0,29.0,66,0.00,,,-99.99,495.000000,,2013-01-02 21:22:00,
2013-01-02 11:32:00,78.0,66.0,30.06,ENE,57,15.0,29.0,66,0.00,,,-99.99,495.000000,,2013-01-02 21:32:00,
2013-01-02 11:42:00,78.0,66.0,30.06,ENE,57,15.0,29.0,66,0.00,,,-99.99,495.000000,,2013-01-02 21:42:00,
2013-01-02 11:52:00,78.0,66.0,30.06,ENE,57,15.0,29.0,66,0.00,,,-99.99,495.000000,,2013-01-02 21:52:00,
2013-01-02 12:12:00,78.0,63.0,30.04,NE,35,17.0,28.0,60,0.00,,,0.08,532.000000,,2013-01-02 22:12:00,
2013-01-02 12:22:00,78.0,63.0,30.04,NE,35,17.0,28.0,60,0.00,,,0.08,532.000000,,2013-01-02 22:22:00,
2013-01-02 12:32:00,78.0,63.0,30.04,NE,35,17.0,28.0,60,0.00,,,0.08,532.000000,,2013-01-02 22:32:00,
2013-01-02 12:42:00,78.0,63.0,30.04,NE,35,17.0,28.0,60,0.00,,,0.08,532.000000,,2013-01-02 22:42:00,
2013-01-02 12:52:00,78.0,63.0,30.04,NE,35,17.0,28.0,60,0.00,,,0.08,532.000000,,2013-01-02 22:52:00,
2013-01-02 13:12:00,78.0,63.0,30.00,ENE,63,18.0,31.0,61,0.00,,,0.08,658.000000,,2013-01-02 23:12:00,
2013-01-02 13:22:00,78.0,63.0,30.00,ENE,63,18.0,31.0,61,0.00,,,0.08,658.000000,,2013-01-02 23:22:00,
2013-01-02 13:33:00,78.0,63.0,30.00,ENE,63,18.0,31.0,61,0.00,,,0.08,658.000000,,2013-01-02 23:33:00,
2013-01-02 13:42:00,78.0,63.0,30.00,ENE,63,18.0,31.0,61,0.00,,,0.08,658.000000,,2013-01-02 23:42:00,
2013-01-02 13:52:00,78.0,63.0,30.00,ENE,63,18.0,31.0,61,0.00,,,0.08,658.000000,,2013-01-02 23:52:00,
2013-01-02 14:22:00,79.0,60.0,29.99,NE,45,16.0,33.0,52,0.00,,,0.08,433.000000,,2013-01-03 00:22:00,
2013-01-02 14:37:00,79.0,60.0,29.99,NE,45,16.0,33.0,52,0.00,,,0.08,433.000000,,2013-01-03 00:37:00,
2013-01-02 14:52:00,79.0,60.0,29.99,NE,45,16.0,33.0,52,0.00,,,0.08,433.000000,,2013-01-03 00:52:00,
2013-01-02 15:22:00,78.0,63.0,29.96,ENE,67,17.0,29.0,60,0.00,,,0.08,341.000000,,2013-01-03 01:22:00,
2013-01-02 15:32:00,78.0,63.0,29.96,ENE,67,17.0,29.0,60,0.00,,,0.08,341.000000,,2013-01-03 01:32:00,
2013-01-02 15:42:00,78.0,63.0,29.96,ENE,67,17.0,29.0,60,0.00,,,0.08,341.000000,,2013-01-03 01:42:00,
2013-01-02 15:52:00,78.0,63.0,29.96,ENE,67,17.0,29.0,60,0.00,,,0.08,341.000000,,2013-01-03 01:52:00,
2013-01-02 16:12:00,77.0,64.0,29.98,ENE,60,13.0,24.0,64,0.00,,,0.08,253.000000,,2013-01-03 02:12:00,
2013-01-02 16:22:00,77.0,64.0,29.98,ENE,60,13.0,24.0,64,0.00,,,0.08,253.000000,,2013-01-03 02:22:00,
2013-01-02 16:33:00,77.0,64.0,29.98,ENE,60,13.0,24.0,64,0.00,,,0.08,253.000000,,2013-01-03 02:33:00,
2013-01-02 16:42:00,77.0,64.0,29.98,ENE,60,13.0,24.0,64,0.00,,,0.08,253.000000,,2013-01-03 02:42:00,
2013-01-02 16:52:00,77.0,64.0,29.98,ENE,60,13.0,24.0,64,0.00,,,0.08,253.000000,,2013-01-03 02:52:00,
2013-01-02 17:12:00,76.0,63.0,29.97,NE,50,17.0,31.0,65,0.00,,,0.08,128.000000,,2013-01-03 03:12:00,
2013-01-02 17:22:00,76.0,63.0,29.97,NE,50,17.0,31.0,65,0.00,,,0.08,128.000000,,2013-01-03 03:22:00,
2013-01-02 17:46:00,76.0,63.0,29.97,NE,50,17.0,31.0,65,0.00,,,0.08,128.000000,,2013-01-03 03:46:00,
2013-01-02 17:52:00,76.0,63.0,29.97,NE,50,17.0,31.0,65,0.00,,,0.08,128.000000,,2013-01-03 03:52:00,
2013-01-02 18:12:00,75.0,63.0,29.99,NE,51,13.0,32.0,67,0.00,,,0.08,36.000000,,2013-01-03 04:12:00,
2013-01-02 18:22:00,75.0,63.0,29.99,NE,51,13.0,32.0,67,0.00,,,0.08,36.000000,,2013-01-03 04:22:00,
2013-01-02 18:32:00,75.0,63.0,29.99,NE,51,13.0,32.0,67,0.00,,,0.08,36.000000,,2013-01-03 04:32:00,
2013-01-02 18:42:00,75.0,63.0,29.99,NE,51,13.0,32.0,67,0.00,,,0.08,36.000000,,2013-01-03 04:42:00,
2013-01-02 18:52:00,75.0,63.0,29.99,NE,51,13.0,32.0,67,0.00,,,0.08,36.000000,,2013-01-03 04:52:00,
2013-01-02 19:22:00,73.0,61.0,30.01,ENE,60,12.0,25.0,67,0.00,,,0.08,0.000000,,2013-01-03 05:22:00,
2013-01-02 19:33:00,73.0,61.0,30.01,ENE,60,12.0,25.0,67,0.00,,,0.08,0.000000,,2013-01-03 05:33:00,
2013-01-02 19:42:00,73.0,61.0,30.01,ENE,60,12.0,25.0,67,0.00,,,0.08,0.000000,,2013-01-03 05:42:00,
2013-01-02 19:52:00,73.0,61.0,30.01,ENE,60,12.0,25.0,67,0.00,,,0.08,0.000000,,2013-01-03 05:52:00,
2013-01-02 20:22:00,75.0,62.0,30.02,NE,52,13.0,28.0,65,0.00,,,0.08,0.000000,,2013-01-03 06:22:00,
2013-01-02 20:32:00,75.0,62.0,30.02,NE,52,13.0,28.0,65,0.00,,,0.08,0.000000,,2013-01-03 06:32:00,
2013-01-02 20:42:00,75.0,62.0,30.02,NE,52,13.0,28.0,65,0.00,,,0.08,0.000000,,2013-01-03 06:42:00,
2013-01-02 20:52:00,75.0,62.0,30.02,NE,52,13.0,28.0,65,0.00,,,0.08,0.000000,,2013-01-03 06:52:00,
2013-01-02 21:22:00,73.0,63.0,30.03,ENE,70,12.0,28.0,70,0.00,,,0.08,0.000000,,2013-01-03 07:22:00,
2013-01-02 21:32:00,73.0,63.0,30.03,ENE,70,12.0,28.0,70,0.00,,,0.08,0.000000,,2013-01-03 07:32:00,
2013-01-02 21:42:00,73.0,63.0,30.03,ENE,70,12.0,28.0,70,0.00,,,0.08,0.000000,,2013-01-03 07:42:00,
2013-01-02 21:52:00,73.0,63.0,30.03,ENE,70,12.0,28.0,70,0.00,,,0.08,0.000000,,2013-01-03 07:52:00,
2013-01-02 22:22:00,71.0,62.0,30.06,ENE,67,18.0,31.0,72,0.00,,,0.08,0.000000,,2013-01-03 08:22:00,
2013-01-02 22:32:00,71.0,62.0,30.06,ENE,67,18.0,31.0,72,0.00,,,0.08,0.000000,,2013-01-03 08:32:00,
2013-01-02 22:42:00,71.0,62.0,30.06,ENE,67,18.0,31.0,72,0.00,,,0.08,0.000000,,2013-01-03 08:42:00,
2013-01-02 22:52:00,71.0,62.0,30.06,ENE,67,18.0,31.0,72,0.00,,,0.08,0.000000,,2013-01-03 08:52:00,
2013-01-02 23:12:00,72.0,66.0,30.04,NE,53,12.0,20.0,81,0.00,,,0.07,0.000000,,2013-01-03 09:12:00,
2013-01-02 23:22:00,72.0,66.0,30.04,NE,53,12.0,20.0,81,0.00,,,0.07,0.000000,,2013-01-03 09:22:00,
2013-01-02 23:33:00,72.0,66.0,30.04,NE,53,12.0,20.0,81,0.00,,,0.07,0.000000,,2013-01-03 09:33:00,
2013-01-02 23:42:00,72.0,66.0,30.04,NE,53,12.0,20.0,81,0.00,,,0.07,0.000000,,2013-01-03 09:42:00,
2013-01-02 23:52:00,72.0,66.0,30.04,NE,53,12.0,20.0,81,0.00,,,0.07,0.000000,,2013-01-03 09:52:00,